RH
52 48 47 46 42 37 36 36 33 28 23 19 15 11 9 8 9 10 10 10 10 10 12 15 18 19 18 18 19 22 24 20 18 20 20 18 17 17 19 18 17 17 17 17 18 16 16 19 18 18 19 19 23 29 29 27 25 22 22 24 24 25 28 28 27 27 26 27 29 30 32 32 32 36 42 44 47 48 48 51 52 53 54 55 61 60 48
51 49 49 48 41 37 36 33 27 21 17 13 9 8 8 9 9 10 11 11 9 10 12 11 15 21 22 19 18 20 21 20 19 19 18 17 17 18 19 17 15 18 19 18 17 15 15 17 17 19 22 23 27 31 29 27 26 23 23 25 24 25 29 29 29 30 29 30 33 33 33 33 33 39 45 47 49 52 52 52 53 55 56 56 58 54 45
51 49 49 46 39 36 34 27 19 14 10 9 8 8 9 9 9 10 10 10 8 10 13 11 14 23 23 17 17 18 18 19 19 19 18 18 17 16 17 17 16 19 20 19 20 19 16 16 18 20 22 24 27 29 28 28 28 26 27 26 23 25 28 28 29 32 33 33 35 35 36 37 38 42 47 49 50 52 54 55 56 57 57 57 57 51 42
49 46 44 41 37 32 26 17 11 10 9 9 9 8 9 9 9 10 10 10 9 11 13 12 14 22 20 13 15 17 16 16 17 18 17 17 17 16 17 17 17 19 19 19 21 21 19 19 20 21 21 23 26 29 30 29 28 29 29 25 25 28 29 28 30 33 32 30 32 35 39 41 42 45 49 50 52 52 54 59 60 58 58 56 54 51 45
44 43 40 36 29 21 14 10 9 9 9 9 9 8 8 9 10 11 11 10 10 11 12 11 12 15 13 10 12 15 15 14 15 17 18 18 18 17 17 19 17 17 18 18 19 22 23 22 21 22 24 26 26 28 31 31 30 31 28 24 27 31 30 31 34 32 31 33 35 39 42 42 43 46 48 49 53 53 52 55 55 54 58 55 49 50 49
41 38 32 24 17 11 9 9 9 9 9 8 7 7 9 9 10 12 11 10 11 10 11 13 13 13 13 13 14 14 16 14 13 16 19 19 19 16 16 18 19 18 19 17 18 22 23 22 22 23 26 27 25 24 29 33 31 30 27 26 30 33 33 35 37 35 35 39 41 41 44 44 45 47 48 48 51 52 50 50 49 50 55 53 48 50 53
32 25 17 12 9 8 9 9 8 8 7 7 7 8 9 10 10 11 11 11 11 12 13 14 14 14 15 16 15 15 16 15 14 17 18 18 19 17 15 16 20 24 23 17 18 22 19 17 21 24 25 25 24 21 24 30 32 30 29 30 31 35 39 42 43 40 39 42 44 44 45 46 47 48 47 46 48 50 50 49 49 52 55 54 53 55 57
17 12 9 9 8 8 8 7 6 7 7 7 8 8 9 9 10 11 11 11 12 14 15 14 13 15 14 13 13 15 18 16 14 17 16 15 18 19 16 17 22 28 27 21 20 22 20 16 18 22 23 24 26 24 22 29 35 33 33 35 33 34 41 48 47 42 39 42 44 45 45 46 45 44 44 45 47 50 54 55 56 59 60 60 61 64 63
9 9 8 8 7 7 7 6 6 7 7 8 8 8 9 9 10 11 10 11 13 15 16 15 14 15 14 12 13 16 19 18 17 18 17 15 18 20 19 21 26 29 29 26 23 22 21 19 19 21 22 22 25 24 23 31 38 37 37 38 36 36 42 47 46 43 41 42 42 42 41 40 41 42 43 45 49 53 59 62 63 64 62 62 66 68 67
8 8 7 6 6 6 6 6 7 7 7 8 8 8 9 9 10 11 10 11 13 14 15 14 12 13 14 14 15 16 18 19 18 16 17 19 20 20 20 21 23 26 26 26 24 22 22 23 24 24 24 25 26 26 26 31 38 40 41 42 42 42 43 44 46 45 43 41 39 37 37 40 43 45 45 49 54 57 60 64 67 67 65 65 68 68 64
6 6 5 5 6 6 7 7 7 7 7 8 8 8 9 9 10 11 11 11 13 14 14 14 13 14 16 16 17 19 20 21 19 15 17 21 23 23 23 22 22 25 25 24 23 24 25 26 27 27 27 29 30 31 31 33 37 39 41 44 46 44 42 43 44 43 43 42 39 37 40 47 51 49 50 54 57 58 59 61 65 66 65 65 65 62 58
5 5 5 6 6 6 7 7 7 7 7 8 8 9 10 10 11 13 13 13 17 19 18 18 17 17 19 19 20 22 22 23 23 20 20 23 25 25 25 23 22 23 24 23 23 26 27 28 30 32 33 34 34 34 35 37 40 38 36 40 45 42 40 42 43 45 47 48 46 47 50 52 53 55 57 58 59 61 61 61 65 66 62 58 57 55 51
6 6 6 6 6 6 6 7 7 9 9 9 10 11 12 13 14 16 16 16 20 21 19 19 19 18 20 22 23 25 26 26 26 27 26 26 26 25 24 24 23 23 25 26 25 28 30 31 34 35 35 35 34 35 37 40 40 39 36 37 40 41 41 44 47 49 52 53 54 56 56 54 56 60 61 59 61 64 61 58 59 58 54 51 50 48 44
6 6 6 6 7 7 8 9 9 10 11 12 13 13 14 15 16 17 17 17 20 21 19 20 23 21 21 23 25 27 28 27 27 27 27 27 27 25 24 25 26 26 29 29 28 29 30 32 36 35 33 33 30 29 36 41 40 39 39 36 36 40 44 46 50 53 56 59 61 61 59 57 60 63 63 62 63 62 57 52 48 45 46 47 45 42 40
6 7 7 9 9 10 11 12 12 13 14 14 15 15 15 16 16 17 18 18 20 20 19 21 23 21 21 23 25 26 26 25 25 24 24 25 27 26 26 28 29 31 31 29 30 33 31 29 32 32 29 29 26 24 31 38 36 35 37 37 38 44 49 50 53 58 62 64 68 70 69 66 64 64 63 63 61 55 50 48 44 41 42 43 41 41 42
9 10 11 12 13 13 14 14 14 14 14 15 15 16 16 16 17 18 19 20 19 19 19 19 20 21 22 23 24 24 23 24 23 22 23 27 29 29 30 31 31 32 30 28 31 36 34 30 29 28 26 25 24 23 26 30 33 36 41 46 49 53 57 57 60 66 69 70 74 79 77 70 65 63 62 58 52 46 41 42 43 42 41 40 41 43 43
12 13 14 15 15 15 15 14 15 15 15 15 16 16 17 17 17 18 19 20 19 19 20 21 21 22 22 22 23 22 21 23 23 23 26 29 31 32 32 31 31 31 29 30 33 35 33 31 29 27 26 26 24 25 29 34 39 42 49 56 58 60 62 62 64 70 73 74 78 79 74 67 62 60 55 46 40 39 39 40 41 40 39 41 43 44 44
15 16 16 15 15 15 14 15 15 16 16 16 17 17 17 17 18 18 19 21 20 21 22 22 21 22 21 21 22 22 23 25 26 27 30 30 31 31 30 29 30 29 27 30 33 31 28 28 26 24 25 29 31 34 39 43 45 48 54 60 62 64 67 67 69 73 75 77 78 74 69 64 58 51 43 36 34 38 41 40 40 40 42 44 45 45 45
16 16 15 15 15 16 16 17 17 17 18 18 18 18 18 18 19 20 21 22 22 21 22 22 22 23 23 23 24 24 26 27 28 30 31 29 28 29 28 26 26 25 24 26 28 26 23 23 28 30 32 40 44 45 45 46 48 51 56 58 59 64 69 69 69 73 75 76 76 70 63 55 46 40 36 35 39 45 44 41 42 45 46 45 45 45 46
16 16 17 17 17 18 18 18 18 18 19 19 19 19 19 20 22 23 23 24 22 21 22 23 24 25 25 25 26 26 26 26 26 28 28 26 26 26 26 24 22 22 23 21 22 24 23 25 34 40 43 49 50 46 46 50 52 53 56 58 58 61 65 66 67 67 67 69 70 67 58 47 38 36 38 41 46 49 46 44 46 47 47 46 45 45 44
18 18 18 19 19 19 19 19 19 19 20 20 20 21 22 22 24 24 23 22 21 21 23 24 25 26 25 25 25 25 25 24 24 25 25 24 25 23 21 21 20 20 21 19 20 25 29 36 45 48 47 48 48 45 50 57 57 55 58 61 62 63 64 64 64 63 62 63 62 56 48 40 37 40 45 46 48 48 47 47 48 47 47 46 44 40 36
19 19 19 19 20 20 20 20 20 20 21 21 22 23 23 24 24 23 21 20 21 23 24 24 25 25 24 24 23 23 23 23 23 24 23 24 24 23 21 20 19 20 21 23 27 33 38 44 47 45 44 47 50 51 55 59 59 60 61 61 63 64 61 57 56 56 56 55 51 44 39 37 39 45 49 49 49 50 50 50 49 47 46 44 41 36 33
20 20 20 21 21 21 21 21 22 22 23 24 24 24 24 23 22 20 19 20 22 24 24 25 25 24 24 23 23 21 22 22 22 23 23 23 23 23 22 21 22 24 28 31 35 38 41 43 42 42 47 52 54 57 59 59 61 65 65 60 57 55 51 48 47 47 46 44 41 39 38 39 43 47 50 50 51 52 50 47 45 44 45 45 43 40 41
20 20 21 21 22 22 23 23 23 24 24 24 23 22 21 20 19 19 20 21 22 23 24 25 25 24 23 23 22 21 21 22 21 22 23 23 22 22 23 24 27 32 37 39 39 38 40 43 44 46 51 53 54 58 62 64 64 65 65 61 54 47 44 42 42 43 44 42 39 38 40 43 47 50 50 51 50 48 46 45 43 43 43 43 41 42 44
21 21 21 21 21 21 21 21 21 21 20 19 18 18 17 18 19 19 21 22 22 22 24 25 24 23 23 22 21 21 21 21 22 23 24 23 22 22 25 29 34 38 40 39 39 40 42 46 49 51 52 53 55 59 64 65 62 58 57 56 51 44 41 40 42 44 47 45 42 40 41 45 49 50 48 46 44 41 39 41 43 43 42 39 38 42 46
20 20 19 19 18 17 17 17 16 16 17 16 16 16 16 16 17 18 19 21 22 21 22 24 24 23 22 22 21 22 22 23 24 25 24 24 23 25 28 32 35 37 38 40 43 46 48 50 53 54 54 54 56 60 62 59 54 51 51 48 45 42 42 44 45 47 47 47 45 44 42 42 45 47 45 42 40 36 33 35 37 39 38 37 39 43 46
18 17 16 15 15 14 14 13 13 13 14 14 14 15 15 16 16 17 18 19 21 20 20 22 22 22 21 22 22 23 24 25 26 26 25 24 25 29 31 33 34 36 40 45 48 50 50 51 53 54 54 54 56 58 56 52 50 50 49 46 44 44 45 47 50 51 51 51 51 53 52 47 44 44 42 39 37 34 32 32 33 35 37 41 43 44 44
17 16 15 13 13 12 12 12 12 12 12 13 13 13 14 15 16 16 16 17 18 18 18 20 21 22 23 23 23 24 26 27 27 27 26 26 28 31 32 34 37 42 47 49 50 51 51 52 53 53 53 53 54 54 52 52 53 53 49 46 46 47 47 50 54 56 55 54 55 56 55 49 43 41 39 36 34 33 31 32 34 38 42 45 47 47 47
15 13 12 11 11 11 12 12 12 12 13 14 14 13 13 14 15 16 15 16 16 17 17 19 22 23 24 25 25 26 28 28 27 26 26 27 30 32 35 38 44 48 51 51 50 51 52 52 52 52 52 51 51 52 55 58 57 52 48 47 47 48 50 54 57 57 55 55 55 53 49 44 39 37 35 35 35 34 34 37 41 44 46 48 49 51 52
12 10 9 9 10 10 10 11 12 13 14 14 14 14 14 15 16 16 15 15 16 16 17 20 23 25 25 26 28 28 27 26 25 25 28 31 33 37 41 45 48 50 51 50 49 50 52 51 49 50 50 48 47 50 53 55 52 48 46 48 49 49 53 57 60 59 56 53 51 48 43 38 35 33 34 37 40 43 46 48 49 49 50 51 51 50 49
12 10 9 9 9 9 10 10 11 12 13 13 14 14 15 15 16 16 16 16 17 17 19 21 24 25 26 27 27 27 25 25 26 29 33 37 40 42 44 46 48 50 49 49 48 49 49 49 47 47 47 45 44 48 51 51 50 48 46 48 49 51 53 56 57 56 53 49 45 41 35 32 33 36 38 41 47 53 55 54 53 53 52 50 47 47 49
12 11 10 10 10 10 10 10 11 11 12 12 13 14 14 15 16 16 17 18 19 19 20 21 23 25 26 26 25 25 26 29 33 37 40 42 43 43 44 46 47 48 46 46 47 47 48 47 45 45 45 42 43 48 51 51 51 50 48 48 51 52 52 52 51 50 47 42 39 36 32 30 33 39 43 48 53 57 55 53 53 52 48 45 45 48 53
13 10 10 10 10 10 10 10 10 11 11 11 12 12 13 13 14 15 17 18 18 19 20 21 23 25 26 26 27 30 33 37 41 42 43 43 42 42 43 45 46 45 43 44 45 45 45 44 43 43 43 40 41 48 51 51 51 51 50 51 52 51 51 50 47 44 40 37 38 41 43 41 41 46 51 55 58 57 54 51 49 46 43 44 47 51 52
13 11 10 11 10 11 11 10 10 11 11 11 12 13 13 14 16 17 18 20 21 23 23 24 28 31 31 32 36 39 41 43 44 43 42 42 40 40 42 42 42 41 41 42 43 44 44 43 42 44 44 41 43 49 52 51 51 51 51 52 52 50 48 46 42 39 37 38 39 44 49 52 53 55 57 58 56 53 50 47 45 44 45 47 50 50 50
14 13 13 13 12 12 12 12 12 13 13 14 15 15 16 18 20 21 23 24 26 28 29 30 35 40 41 43 47 47 44 43 42 41 40 40 40 40 40 39 39 41 41 40 41 43 44 43 43 44 45 45 48 52 53 52 52 52 53 52 50 46 43 41 39 37 38 40 42 44 48 53 56 56 56 53 49 46 45 45 45 47 47 48 47 48 49
16 15 15 15 15 16 15 16 17 17 17 18 19 19 21 23 24 25 27 28 29 31 32 34 40 45 47 47 47 45 42 40 40 39 38 38 38 37 36 36 40 42 39 38 40 43 42 41 42 45 48 49 51 53 55 55 54 54 52 49 44 40 40 40 39 40 40 40 42 46 49 51 53 54 51 47 45 45 46 46 46 46 46 46 46 47 50
17 17 17 17 18 18 19 20 20 21 21 23 23 23 24 27 28 30 31 32 33 34 36 39 45 48 47 45 43 40 39 40 39 37 36 37 37 35 33 37 41 40 38 40 43 41 38 39 43 48 50 49 50 54 56 56 53 51 47 42 39 40 42 43 43 45 43 39 39 43 46 47 48 48 45 43 45 47 46 44 44 45 48 50 51 52 54
20 19 20 20 21 21 22 23 23 24 24 25 26 27 28 30 31 33 34 35 37 39 40 44 46 45 42 40 39 38 38 39 38 36 35 37 36 33 32 36 38 37 40 45 42 36 36 43 50 52 50 47 51 56 56 51 47 44 40 39 40 44 46 48 49 50 49 47 46 47 48 46 45 43 43 45 47 46 45 44 46 49 52 54 55 55 55
22 22 22 23 23 24 25 25 25 26 26 27 29 30 31 33 34 36 37 39 40 42 44 44 42 40 39 39 39 38 37 37 38 38 37 36 34 32 33 35 34 35 42 45 38 32 38 46 52 54 51 49 53 54 49 43 41 40 38 41 45 49 51 53 53 54 57 59 58 54 51 49 47 46 46 46 45 44 44 46 48 50 53 56 56 55 53
22 22 23 24 25 26 26 26 26 27 28 30 31 32 34 36 37 39 41 44 45 43 42 40 38 36 37 38 40 39 36 36 37 37 36 35 32 31 33 33 31 35 43 43 35 34 40 46 51 53 52 50 49 46 41 39 41 40 41 45 49 51 53 54 54 56 60 60 56 51 49 49 50 48 47 47 46 46 47 48 49 51 53 54 54 54 53
22 22 23 24 25 26 26 26 27 29 29 31 33 35 37 39 40 41 44 47 45 41 37 36 36 36 36 38 39 37 36 35 35 34 34 34 32 32 34 32 31 35 42 40 34 38 45 51 53 53 49 45 43 41 40 42 43 42 44 49 51 52 53 53 54 57 58 54 51 50 50 50 50 50 48 48 49 50 49 49 51 53 54 53 53 52 51
22 22 22 24 25 25 25 27 28 30 31 33 35 39 42 43 42 43 43 42 40 37 35 35 36 36 37 37 36 34 34 35 34 33 33 32 30 31 34 36 35 37 38 36 36 42 49 52 51 48 43 42 42 44 45 45 44 44 48 51 51 51 52 52 53 54 53 50 50 51 51 50 50 49 49 48 49 50 50 51 52 53 53 52 51 49 47
22 22 22 24 25 24 26 28 30 32 36 39 39 40 43 45 45 44 42 39 37 37 36 35 36 36 36 35 34 33 33 34 32 31 31 30 30 32 37 38 36 36 36 37 40 45 48 49 47 45 43 44 46 48 48 45 43 46 50 50 51 53 53 51 51 51 50 49 51 52 52 50 49 48 48 48 48 48 49 51 53 52 50 47 45 44 43
23 23 23 25 26 25 27 30 31 33 39 42 42 42 44 45 45 44 42 38 37 38 37 37 39 39 37 34 33 32 32 31 30 30 30 30 32 37 38 37 36 36 38 42 45 46 46 46 46 45 46 48 50 50 47 43 44 47 48 48 52 54 51 47 47 48 48 49 51 52 52 50 48 48 48 47 47 48 49 49 50 49 45 42 40 39 40
25 25 25 27 29 29 29 32 35 37 40 42 43 44 44 42 41 43 41 38 37 37 37 39 40 39 36 32 31 31 31 29 29 30 31 31 34 37 37 36 40 42 43 45 48 46 44 44 46 48 50 52 52 48 43 42 45 48 48 49 51 49 45 44 46 47 48 50 52 52 50 48 46 46 46 46 47 48 48 47 46 44 40 38 37 36 35
28 28 28 30 32 32 33 36 39 40 41 41 42 42 41 38 38 39 38 36 36 38 38 38 38 37 34 32 31 30 30 29 29 32 33 33 36 38 36 37 43 48 48 49 51 50 48 48 50 51 53 53 49 44 41 43 47 49 50 51 49 45 43 45 47 47 49 52 52 50 48 46 45 45 46 46 46 46 44 43 42 40 38 37 34 33 32
29 29 30 32 34 35 36 39 40 40 40 40 39 37 36 36 35 36 36 36 38 39 39 38 36 34 33 33 31 30 30 30 31 33 34 36 39 41 42 44 49 52 52 52 53 53 52 51 52 53 53 50 44 39 40 44 49 51 52 51 46 43 45 47 48 48 52 53 50 47 46 44 43 44 45 46 45 43 41 41 40 38 36 35 32 31 32
30 31 33 36 38 39 38 39 39 39 39 39 38 35 34 34 34 35 37 38 39 38 37 36 34 33 33 33 32 31 31 31 33 35 36 39 42 45 46 50 53 55 54 54 54 52 51 52 53 53 50 45 40 39 42 47 51 52 50 46 43 44 47 48 48 51 52 50 46 45 45 43 43 43 43 44 44 41 40 39 38 35 34 32 30 30 31
32 34 36 38 40 39 38 37 38 37 36 36 36 35 34 34 35 36 38 39 38 37 36 34 34 34 33 32 32 34 36 36 37 40 42 45 49 51 51 53 55 54 54 54 53 52 52 53 53 49 45 40 38 41 47 51 52 51 47 44 43 46 48 48 50 52 50 45 43 44 44 42 41 41 42 43 42 40 38 37 35 33 32 32 31 32 33
32 35 39 40 40 40 38 37 37 36 35 34 34 34 34 35 36 37 38 37 36 34 34 34 34 34 33 33 36 38 38 39 43 46 47 50 55 56 53 54 56 55 53 52 53 53 53 51 48 44 41 40 41 45 50 53 52 48 44 43 45 48 49 50 50 49 46 43 42 43 42 41 41 41 41 41 41 38 36 35 33 32 32 32 32 33 34
35 37 40 41 41 40 38 36 33 33 34 34 34 34 35 36 37 37 37 35 33 33 35 35 35 36 36 37 38 38 37 41 48 52 51 52 56 56 53 53 56 55 53 53 53 52 49 45 42 40 40 40 43 48 53 53 48 43 42 44 47 49 50 51 49 46 42 41 42 41 41 41 41 41 40 40 39 37 35 33 32 32 32 32 33 33 34
37 39 41 42 41 39 37 34 32 32 33 34 35 35 36 37 38 38 36 34 32 33 35 35 36 38 38 38 38 39 41 45 50 52 50 50 53 54 55 55 56 54 53 52 50 46 42 40 40 41 41 42 45 51 53 50 44 41 42 45 48 49 50 49 46 42 40 40 40 40 41 41 41 40 39 38 37 36 34 33 31 31 31 32 33 32 32